Location: Newark
(51.2000°N, 58.6167°E)
Time: 12:12:24
(UTC+00:00)

Envisat - Pass Details

Date: 01 October 2020
Orbit: 764 x 766 km, 98.1° (Epoch: 26 October)

Event Time Altitude Azimuth Distance (km) Brightness Sun altitude
Rises 14:22:59 0° 205° (SSW) 3,223 6.5 -7.1°
Reaches altitude 10° 14:25:48 10° 220° (SW) 2,302 6.0 -7.6°
Maximum altitude 14:29:39 22° 270° (W) 1,654 6.0 -8.2°
Drops below altitude 10° 14:33:31 10° 320° (NW) 2,314 6.2 -8.8°
Sets 14:36:22 0° 336° (NNW) 3,246 6.7 -9.2°
